Tracking 27111 objects as of 28-Mar-2023
HD Live streaming from Space Station
objects crossing your sky now

KSLV-II DUMMY

Track KSLV-II DUMMY now!
10-day predictions


NORAD ID: 52895
Int'l Code: 2022-065B
Perigee: 699.3 km
Apogee: 712.9 km
Inclination: 98.1 °
Period: 98.8 minutes
Semi major axis: 7077 km
RCS: Unknown
Launch date: June 21, 2022
Source: South Korea (SKOR)
Launch site: Naro Space Center, South Korea (NSC)
Your satellite tracking list
Your tracking list is empty




NASA's NSSDC Master Catalog

Two Line Element Set (TLE):
1 52895U 22065B   23086.89633793  .00000194  00000-0  51723-4 0  9997
2 52895  98.0588 233.9820 0009631 102.2653 257.9625 14.58206290 40753
Source of the keplerian elements: AFSPC